CST,Max TemperatureF,Mean TemperatureF,Min TemperatureF,Max Dew PointF,MeanDew PointF,Min DewpointF,Max Humidity, Mean Humidity, Min Humidity, Max Sea Level PressureIn, Mean Sea Level PressureIn, Min Sea Level PressureIn, Max VisibilityMiles, Mean VisibilityMiles, Min VisibilityMiles, Max Wind SpeedMPH, Mean Wind SpeedMPH, Max Gust SpeedMPH,PrecipitationIn, CloudCover, Events, WindDirDegrees
2014-2-1,73,68,63,66,64,61,97,91,76,29.89,29.85,29.81,10,8,5,18,13,,0.00,7,,137
2014-2-2,68,54,41,67,53,37,100,93,85,30.16,29.95,29.83,10,8,2,26,14,39,0.14,8,Rain,45
2014-2-3,48,42,37,46,39,36,93,88,82,30.22,30.13,29.97,10,8,5,23,15,29,0.00,8,,21
2014-2-4,55,47,39,51,47,39,97,91,75,30.07,29.93,29.84,10,8,0,22,14,28,0.00,5,Fog-Rain,32
2014-2-5,51,44,37,42,36,28,100,79,50,30.37,30.23,30.08,10,6,0,29,13,38,0.00,2,Fog,6
2014-2-6,39,36,34,28,25,23,68,64,57,30.47,30.38,30.33,10,10,10,25,18,32,0.00,8,,360
2014-2-7,39,37,35,36,32,25,93,82,65,30.35,30.28,30.19,10,6,2,21,14,26,0.00,8,Snow,14
2014-2-8,51,45,39,48,42,35,100,90,77,30.26,30.20,30.13,10,5,1,12,6,,0.00,8,,22
2014-2-9,66,57,48,63,55,48,100,93,75,30.17,30.07,30.00,10,4,0,13,5,,0.00,8,Fog,120
2014-2-10,66,54,42,64,54,40,100,95,89,30.11,30.04,29.98,10,6,0,25,11,32,0.10,8,Fog-Rain,52
2014-2-11,42,40,36,40,36,33,96,92,86,30.20,30.15,30.09,10,6,2,25,18,31,0.05,8,Rain-Snow,360
2014-2-12,53,44,35,35,34,32,93,77,48,30.21,30.15,30.08,10,9,5,21,15,26,0.00,4,,338
2014-2-13,59,46,32,46,39,29,93,78,55,30.14,30.06,29.97,10,9,5,10,4,,0.00,0,,150
2014-2-14,66,54,41,57,48,39,100,88,66,30.06,29.95,29.85,10,6,0,18,4,25,0.00,0,Fog,162
2014-2-15,68,56,44,56,44,33,96,67,31,30.18,30.11,30.06,10,10,7,22,11,30,0.00,2,,95
2014-2-16,72,64,57,64,61,56,100,91,75,30.10,30.05,30.01,10,6,0,16,9,,0.00,7,Fog,133
2014-2-17,75,68,62,66,64,60,100,88,71,30.11,30.05,29.98,10,7,1,15,11,18,0.00,5,,164
2014-2-18,73,68,64,67,65,63,100,90,71,30.09,30.03,29.97,10,5,0,18,11,25,0.00,4,Fog,156
2014-2-19,73,68,64,68,65,64,100,92,73,29.98,29.91,29.82,10,4,0,22,12,28,0.00,6,Fog,157
2014-2-20,75,68,59,69,65,38,100,88,44,30.04,29.83,29.77,10,6,2,20,13,21,0.01,7,Rain,137
2014-2-21,68,56,44,45,36,26,80,52,21,30.19,30.12,30.06,10,10,10,18,12,25,0.00,0,,73
2014-2-22,69,58,46,62,55,42,97,81,65,30.07,29.98,29.92,10,9,1,20,10,,0.00,5,,99
2014-2-23,75,69,63,70,66,62,100,95,79,30.00,29.95,29.89,10,4,0,13,6,,0.00,6,Fog-Rain,159
2014-2-24,69,65,61,66,63,60,100,95,87,30.10,30.02,29.97,10,4,0,22,7,,0.00,7,Fog,53
2014-2-25,73,68,63,68,66,62,100,93,79,30.03,29.96,29.89,10,4,0,16,9,,0.43,8,Fog-Rain,114
2014-2-26,66,52,39,65,47,34,100,90,82,30.20,30.05,29.92,10,8,1,28,18,38,0.17,7,Rain,355
2014-2-27,53,44,34,44,35,29,89,70,46,30.22,30.11,29.99,10,10,7,12,9,,0.00,0,,88
2014-2-28,68,58,48,62,58,45,97,87,78,29.97,29.90,29.84,10,9,5,15,8,,0.00,5,,178